Location: Newark
(41.1192°N, 81.5292°W)
Time: 08:10:00
(UTC+00:00)

N. Korean satellite - Pass Details

Date: 18 November 2019
Orbit: 455 x 506 km, 97.2° (Epoch: 11 December)

Event Time Altitude Azimuth Distance (km) Brightness Sun altitude
Rises 11:17:00 0° 12° (NNE) 2,615 10.2 -11.5°
Reaches altitude 10° 11:19:06 10° 13° (NNE) 1,722 9.3 -11.1°
Maximum altitude 11:22:49 83° 101° (E) 509 6.7 -10.4°
Drops below altitude 10° 11:26:28 10° 191° (S) 1,687 9.4 -9.7°
Sets 11:28:31 0° 192° (SSW) 2,556 10.3 -9.4°
